SMOS

Last updated on Fri Sep 19 2025 00:02:30 GMT+0000 (Coordinated Universal Time)

1 36036U 09059A 25261.04233077 .00000276 00000+0 10191-3 0 9992 2 36036 98.4434 87.3369 0001198 87.7561 272.3765 14.39748437834299
UTC large
Height (km)
Speed (km/s)
/
Latitude / Longitude
Inclination (degrees)
Orbital Period (minutes)
Azimuth
Elevation
Range (km)
Doppler Factor

Next 0 passes for location: London (51.5072 / 0.1276)

Sorry there are no passes over London.